Location: Saluda
(35.2377°N, 82.3468°W)
Time: 16:24:34
(UTC+00:00)

Transit 2A - Pass Details

Date: 03 October 2022
Orbit: 598 x 959 km, 66.7° (Epoch: 06 December)

Event Time Altitude Azimuth Distance (km) Brightness Sun altitude
Rises 12:38:06 0° 345° (NNW) 2,980 8.8 13.7°
Reaches altitude 10° 12:40:35 10° 356° (N) 2,114 8.2 14.2°
Maximum altitude 12:44:46 29° 57° (ENE) 1,299 8.0 15.0°
Drops below altitude 10° 12:49:17 10° 117° (ESE) 2,302 10.7 15.9°
Sets 12:52:06 0° 128° (SE) 3,295 10.6 16.4°
